map of RGN home
RGN - Airport
Location
City:  Yangon, Yangon, Myanmar (Burma)
Near (Alt.):Rangoon, Mingaladon
Name:Yangon International Airport
Old (Alt.):RAF Mingaladon
ICAO:VYYY
IATA:RGN

Details
Type:Airport (Aerodrome, Airfield)
Use:Public/Civil, Military, International (customs port of entry)
Latitude:16°54'26"N (16.907305)
Longitude:96°08'00"E (96.133222)
Datum:WGS 1984
Elevation:109 ft (33 m)
Variation:0.77°W (WMM2015v2 magnetic declination)
-0.02° annual change
Runways:1
Longest:8104 × 200 ft (2470 × 61 m), paved

Time
Time Zone:UTC+6:30
Local Time:

Weather
METAR:VYYY 041400Z 36003KT 6000 HZ FEW020 28/22 Q1013
TAF:VYYY 041100Z 0412/0512 33005KT 8000 NSC
TEMPO 0412/0418 7000
BECMG 0500/0502 5000 BR

Related Locations
Nearby:
Farthest:PIO: 11892 mi / 19138 km
Pisco [Capitán FAP Renán Elías Olivera Airport], ICA, PE

Find:

   beyond  
but within

Other Information
Maps:
NOTAMs:
Links:
Sources:

  
  • flag of Myanmar (Burma)
  • flag of Yangon
  

Sectional Chart

Flight Planning
at skyvector.com

Satellite Image

Google Maps Satellite view

 

Copyright © 2004-2019 Karl L. Swartz. All rights reserved.
The Great Circle Mapper name and logo are trademarks of the Great Circle Mapper.
All other trademarks mentioned herein belong to their respective owners.
Please see credits for attibutions and further copyright information.

  Follow gcmap on Facebook Follow gcmap on Twitter GCmap on LinkedIn

hCard Microformat

Geo Microformat